Location: Paddlesworth
(51.1000°N, 1.1333°E)
Time: 11:18:59
(UTC+00:00)

Okean 1 - Pass Details

Date: 25 September 2021
Orbit: 539 x 552 km, 82.5° (Epoch: 20 October)

Event Time Altitude Azimuth Distance (km) Brightness Sun altitude
Rises 04:54:44 0° 186° (S) 2,683 6.7 -8.9°
Reaches altitude 10° 04:56:52 10° 186° (S) 1,797 5.8 -8.6°
Maximum altitude 05:00:49 82° 98° (E) 553 3.4 -8.0°
Drops below altitude 10° 05:04:49 10° 12° (NNE) 1,816 6.2 -7.4°
Sets 05:06:59 0° 12° (NNE) 2,715 7.1 -7.0°
